TimeCST,TemperatureF,Dew PointF,Humidity,Sea Level PressureIn,VisibilityMPH,Wind Direction,Wind SpeedMPH,Gust SpeedMPH,PrecipitationIn,Events,Conditions,WindDirDegrees,DateUTC
12:15 AM,51.8,46.4,82,29.89,0.8,SSW,3.5,-,N/A,,Unknown,210,2013-12-02 06:15:00
12:35 AM,51.8,46.4,82,29.88,0.8,SSW,3.5,-,N/A,,Unknown,210,2013-12-02 06:35:00
12:55 AM,50.0,44.6,82,29.88,0.5,Calm,Calm,-,N/A,,Unknown,0,2013-12-02 06:55:00
1:15 AM,51.8,46.4,82,29.87,0.5,Calm,Calm,-,N/A,,Mostly Cloudy,0,2013-12-02 07:15:00
1:35 AM,48.2,44.6,87,29.87,0.2,SSW,3.5,-,N/A,,Overcast,210,2013-12-02 07:35:00
1:55 AM,48.2,42.8,82,29.86,0.5,SSW,4.6,-,N/A,,Overcast,210,2013-12-02 07:55:00
2:15 AM,46.4,42.8,87,29.86,0.2,Calm,Calm,-,N/A,,Overcast,0,2013-12-02 08:15:00
2:35 AM,48.2,42.8,82,29.85,0.2,SW,3.5,-,N/A,,Overcast,220,2013-12-02 08:35:00
2:55 AM,46.4,42.8,87,29.85,0.2,Calm,Calm,-,N/A,,Overcast,0,2013-12-02 08:55:00
3:15 AM,48.2,42.8,82,29.84,0.5,Calm,Calm,-,N/A,,Overcast,0,2013-12-02 09:15:00
3:35 AM,48.2,44.6,87,29.84,0.2,West,3.5,-,N/A,,Overcast,260,2013-12-02 09:35:00
3:55 AM,48.2,44.6,87,29.84,0.2,West,3.5,-,N/A,,Overcast,270,2013-12-02 09:55:00
4:15 AM,48.2,44.6,87,29.83,0.2,Calm,Calm,-,N/A,,Overcast,0,2013-12-02 10:15:00
4:35 AM,48.2,44.6,87,29.83,0.5,Calm,Calm,-,N/A,,Overcast,0,2013-12-02 10:35:00
4:55 AM,48.2,44.6,87,29.82,0.5,NW,4.6,-,N/A,,Overcast,320,2013-12-02 10:55:00
5:15 AM,48.2,44.6,87,29.82,0.5,NNW,3.5,-,N/A,,Overcast,330,2013-12-02 11:15:00
5:35 AM,48.2,44.6,87,29.81,0.5,Calm,Calm,-,N/A,,Overcast,0,2013-12-02 11:35:00
5:55 AM,48.2,44.6,87,29.82,0.5,Calm,Calm,-,N/A,,Overcast,0,2013-12-02 11:55:00
6:15 AM,48.2,44.6,87,29.82,0.5,Calm,Calm,-,N/A,,Overcast,0,2013-12-02 12:15:00
6:35 AM,48.2,42.8,82,29.83,0.5,Calm,Calm,-,N/A,,Overcast,0,2013-12-02 12:35:00
6:55 AM,48.2,44.6,87,29.82,0.5,Calm,Calm,-,N/A,,Overcast,0,2013-12-02 12:55:00
7:15 AM,48.2,44.6,87,29.83,0.2,North,-9999.0,-,N/A,,Overcast,0,2013-12-02 13:15:00
7:35 AM,48.2,42.8,82,29.83,0.2,Calm,Calm,-,N/A,,Overcast,0,2013-12-02 13:35:00
7:55 AM,48.2,42.8,82,29.83,0.2,Calm,Calm,-,N/A,,Overcast,0,2013-12-02 13:55:00
8:15 AM,46.4,42.8,87,29.83,0.2,Calm,Calm,-,N/A,,Overcast,0,2013-12-02 14:15:00
8:35 AM,48.2,42.8,82,29.83,0.2,Calm,Calm,-,N/A,,Overcast,0,2013-12-02 14:35:00
8:55 AM,48.2,44.6,87,29.83,0.2,Calm,Calm,-,N/A,,Overcast,0,2013-12-02 14:55:00
9:15 AM,48.2,44.6,87,29.83,0.2,Calm,Calm,-,N/A,,Overcast,0,2013-12-02 15:15:00
9:35 AM,48.2,44.6,87,29.83,0.2,Calm,Calm,-,N/A,,Overcast,0,2013-12-02 15:35:00
9:55 AM,48.2,44.6,87,29.83,0.2,Calm,Calm,-,N/A,,Overcast,0,2013-12-02 15:55:00
10:15 AM,50.0,44.6,82,29.82,0.2,Calm,Calm,-,N/A,,Overcast,0,2013-12-02 16:15:00
10:35 AM,50.0,44.6,82,29.81,0.2,Calm,Calm,-,N/A,,Overcast,0,2013-12-02 16:35:00
10:55 AM,51.8,46.4,82,29.82,0.2,Calm,Calm,-,N/A,,Overcast,0,2013-12-02 16:55:00
11:15 AM,51.8,46.4,82,29.81,0.2,WSW,3.5,-,N/A,,Overcast,240,2013-12-02 17:15:00
11:35 AM,51.8,46.4,82,29.80,0.5,Calm,Calm,-,N/A,,Overcast,0,2013-12-02 17:35:00
11:55 AM,51.8,48.2,88,29.78,0.5,Calm,Calm,-,N/A,,Overcast,0,2013-12-02 17:55:00
12:15 PM,53.6,48.2,82,29.77,0.8,South,4.6,-,N/A,,Overcast,170,2013-12-02 18:15:00
12:35 PM,53.6,48.2,82,29.77,0.8,South,5.8,-,N/A,,Overcast,190,2013-12-02 18:35:00
12:55 PM,53.6,48.2,82,29.77,1.0,Calm,Calm,-,N/A,,Overcast,0,2013-12-02 18:55:00
1:15 PM,53.6,48.2,82,29.76,1.2,Calm,Calm,-,N/A,,Overcast,0,2013-12-02 19:15:00
1:35 PM,53.6,48.2,82,29.75,1.5,Calm,Calm,-,N/A,,Overcast,0,2013-12-02 19:35:00
1:55 PM,53.6,48.2,82,29.73,5.0,Calm,Calm,-,N/A,,Overcast,0,2013-12-02 19:55:00
2:15 PM,53.6,48.2,82,29.73,6.0,NE,3.5,-,N/A,,Overcast,40,2013-12-02 20:15:00
2:35 PM,53.6,48.2,82,29.73,3.0,Calm,Calm,-,N/A,,Overcast,0,2013-12-02 20:35:00
2:55 PM,53.6,48.2,82,29.73,3.0,ESE,4.6,-,N/A,,Overcast,110,2013-12-02 20:55:00
3:15 PM,53.6,48.2,82,29.73,3.0,Calm,Calm,-,N/A,,Overcast,0,2013-12-02 21:15:00
3:35 PM,53.6,48.2,82,29.73,3.0,Calm,Calm,-,N/A,,Overcast,0,2013-12-02 21:35:00
3:55 PM,53.6,48.2,82,29.72,7.0,SSE,5.8,-,N/A,,Overcast,160,2013-12-02 21:55:00
4:15 PM,53.6,48.2,82,29.72,5.0,SE,4.6,-,N/A,,Overcast,140,2013-12-02 22:15:00
4:35 PM,53.6,48.2,82,29.72,7.0,SE,4.6,-,N/A,,Overcast,140,2013-12-02 22:35:00
4:55 PM,53.6,48.2,82,29.73,8.0,Calm,Calm,-,N/A,,Overcast,0,2013-12-02 22:55:00
5:15 PM,53.6,48.2,82,29.73,8.0,ESE,4.6,-,N/A,,Overcast,110,2013-12-02 23:15:00
5:35 PM,53.6,48.2,82,29.74,8.0,East,4.6,-,N/A,,Overcast,100,2013-12-02 23:35:00
5:55 PM,53.6,48.2,82,29.74,9.0,East,5.8,-,N/A,,Overcast,80,2013-12-02 23:55:00
6:15 PM,53.6,48.2,82,29.74,10.0,East,5.8,-,N/A,,Overcast,80,2013-12-03 00:15:00
6:35 PM,53.6,48.2,82,29.74,10.0,ESE,4.6,-,N/A,,Overcast,110,2013-12-03 00:35:00
6:55 PM,51.8,46.4,82,29.74,9.0,East,4.6,-,N/A,,Overcast,100,2013-12-03 00:55:00
7:15 PM,51.8,46.4,82,29.74,5.0,East,5.8,-,N/A,,Overcast,80,2013-12-03 01:15:00
7:35 PM,51.8,46.4,82,29.74,1.0,ENE,5.8,-,N/A,,Overcast,70,2013-12-03 01:35:00
7:55 PM,51.8,46.4,82,29.74,0.8,NE,5.8,-,N/A,,Overcast,40,2013-12-03 01:55:00
8:15 PM,51.8,46.4,82,29.74,0.5,NE,3.5,-,N/A,,Overcast,40,2013-12-03 02:15:00
8:35 PM,51.8,46.4,82,29.73,0.5,NE,4.6,-,N/A,,Overcast,50,2013-12-03 02:35:00
8:55 PM,50.0,46.4,87,29.73,0.5,ENE,5.8,-,N/A,,Overcast,60,2013-12-03 02:55:00
9:15 PM,50.0,46.4,87,29.73,0.5,Calm,Calm,-,N/A,,Overcast,0,2013-12-03 03:15:00
9:35 PM,50.0,46.4,87,29.71,0.5,Calm,Calm,-,N/A,,Overcast,0,2013-12-03 03:35:00
9:55 PM,48.2,44.6,87,29.71,0.5,SE,4.6,-,N/A,,Overcast,130,2013-12-03 03:55:00
10:15 PM,48.2,44.6,87,29.72,0.5,SE,3.5,-,N/A,,Overcast,130,2013-12-03 04:15:00
10:35 PM,48.2,42.8,82,29.71,0.5,SSE,4.6,-,N/A,,Overcast,150,2013-12-03 04:35:00
10:55 PM,48.2,42.8,82,29.71,0.5,SSE,3.5,-,N/A,,Overcast,150,2013-12-03 04:55:00
11:15 PM,48.2,42.8,82,29.72,0.5,South,3.5,-,N/A,,Overcast,180,2013-12-03 05:15:00
11:35 PM,46.4,42.8,87,29.72,0.5,Calm,Calm,-,N/A,,Overcast,0,2013-12-03 05:35:00
11:55 PM,46.4,42.8,87,29.71,0.2,Calm,Calm,-,N/A,,Overcast,0,2013-12-03 05:55:00